{"data":{"norad_id":53203,"epoch":"2026-09-20T04:31:02.838720Z","epoch_age_seconds":99158,"freshness":"FRESH","line1":"1 53203U 22084Q   26263.18822730  .00000591  00000+0  20623-4 0  9990","line2":"2 53203  97.2842 318.9474 0001341  89.4879 270.6518 15.33435516228701","mean_motion":15.33435516,"eccentricity":0.0001341,"inclination_deg":97.2842,"raan_deg":318.9474,"arg_perigee_deg":89.4879,"mean_anomaly_deg":270.6518,"bstar":2.0623e-5,"rev_number":22870,"period_min":93.906785448421,"perigee_km":464.65365103959,"apogee_km":466.48913363041,"semimajor_km":6843.708392335,"source":"CELESTRAK","updated_at":"2026-09-20T09:00:40.191377Z"}}